EW7577 Weather Reports


time (UTC)temp
C
wind
direction
speed
KPH
gust
KPH
rain 1hr
cm
rain 24hr
cm
rain mn
cm
humidity
%
barometer
mb
20260503030055 21 346 0.0 0.0 0.00 0.00 0.00 35 1008.6
20260503024548 21 345 0.0 0.0 0.00 0.00 0.00 34 1008.5
20260503023055 22 346 0.0 0.0 0.00 0.00 0.00 33 1008.5
20260503021554 22 4 0.0 0.0 0.00 0.00 0.00 33 1008.4
20260503020051 22 294 0.0 0.0 0.00 0.00 0.00 33 1008.4
20260503014546 23 274 0.0 1.6 0.00 0.00 0.00 29 1008.4
20260503013044 23 8 0.0 0.0 0.00 0.00 0.00 28 1008.5
20260503011542 23 304 0.0 0.0 0.00 0.00 0.00 29 1008.7
20260503010043 24 20 0.0 1.6 0.00 0.00 0.00 29 1008.7
20260503004555 25 319 0.0 1.6 0.00 0.00 0.00 26 1008.8
20260503003057 26 351 0.0 0.0 0.00 0.00 0.00 19 1008.7
20260503001548 26 107 0.0 0.0 0.00 0.00 0.00 18 1008.8
20260503000038 26 107 0.0 0.0 0.00 0.00 0.00 17 1008.9
20260502234535 26 64 0.0 0.0 0.00 0.00 0.00 17 1009.1
20260502233034 26 144 0.0 0.0 0.00 0.00 0.00 17 1009.2
20260502231533 26 341 0.0 0.0 0.00 0.00 0.00 16 1009.2
20260502230031 27 25 0.0 0.0 0.00 0.00 0.00 14 1009.4
20260502224534 27 74 0.0 0.0 0.00 0.00 0.00 16 1009.7
20260502223025 26 54 0.0 1.6 0.00 0.00 0.00 16 1009.9
20260502221522 26 72 0.0 1.6 0.00 0.00 0.00 15 1010.1
20260502220027 27 343 0.0 1.6 0.00 0.00 0.00 17 1010.3
20260502214517 27 325 0.0 1.6 0.00 0.00 0.00 14 1010.5
20260502213015 26 65 0.0 6.4 0.00 0.00 0.00 20 1010.7
20260502211514 27 101 0.0 6.4 0.00 0.00 0.00 19 1011.0
20260502210008 26 56 0.0 3.2 0.00 0.00 0.00 20 1011.2
20260502204506 26 89 0.0 11.3 0.00 0.00 0.00 18 1011.4
20260502203004 26 130 0.0 8.0 0.00 0.00 0.00 20 1011.5
20260502201503 26 164 0.0 8.0 0.00 0.00 0.00 20 1011.7
20260502200133 26 53 0.0 11.3 0.00 0.00 0.00 21 1011.9
20260502194608 25 139 0.0 12.9 0.00 0.00 0.00 20 1012.2
20260502193055 24 262 0.0 4.8 0.00 0.00 0.00 27 1012.4
20260502191553 23 68 0.0 1.6 0.00 0.00 0.00 30 1012.7
20260502190046 23 98 0.0 6.4 0.00 0.00 0.00 32 1013.0
20260502184545 23 339 0.0 4.8 0.00 0.00 0.00 30 1013.1
20260502183046 22 143 0.0 0.0 0.00 0.00 0.00 33 1013.4
20260502181535 21 285 0.0 0.0 0.00 0.00 0.00 34 1013.7
20260502163018 16 149 0.0 8.0 0.00 0.00 0.00 39 1014.9
20260502161510 15 136 0.0 12.9 0.00 0.00 0.00 40 1015.0
20260502151611 13 127 0.0 12.9 0.00 0.00 0.00 43 1015.1
20260502150127 12 92 1.6 14.5 0.00 0.00 0.00 44 1014.9
20260502123113 8 156 0.0 0.0 0.00 0.00 0.00 56 1014.4
20260502121541 8 139 0.0 0.0 0.00 0.00 0.00 61 1014.3
20260502114540 8 148 0.0 0.0 0.00 0.00 0.00 60 1014.2
20260502113046 9 120 0.0 0.0 0.00 0.00 0.00 59 1014.3
20260502111540 9 127 0.0 0.0 0.00 0.00 0.00 59 1014.3
20260502110037 9 126 0.0 0.0 0.00 0.00 0.00 59 1014.3
20260502104535 8 131 0.0 0.0 0.00 0.00 0.00 62 1014.2
20260502103057 7 124 0.0 0.0 0.00 0.00 0.00 64 1014.3
20260502101546 8 124 0.0 0.0 0.00 0.00 0.00 61 1014.3
20260502091528 10 158 0.0 0.0 0.00 0.00 0.00 59 1014.1
20260502071517 8 113 0.0 0.0 0.00 0.00 0.00 65 1014.4
20260502070013 9 113 0.0 0.0 0.00 0.00 0.00 62 1014.3
20260502064504 10 142 0.0 0.0 0.00 0.00 0.00 59 1014.3
20260502063126 11 113 0.0 0.0 0.00 0.00 0.00 55 1014.3
20260502061600 11 120 0.0 0.0 0.00 0.00 0.00 53 1014.2
20260502060106 11 115 0.0 0.0 0.00 0.00 0.00 54 1014.2
20260502054620 11 139 0.0 0.0 0.00 0.00 0.00 53 1014.2
20260502053101 12 138 0.0 0.0 0.00 0.00 0.00 52 1014.2
20260502051554 12 156 0.0 0.0 0.00 0.00 0.00 52 1014.1
20260502050054 13 156 0.0 0.0 0.00 0.00 0.00 47 1014.1
20260502044554 14 156 0.0 0.0 0.00 0.00 0.00 43 1014.0
20260502043104 15 128 0.0 0.0 0.00 0.00 0.00 44 1014.0
20260502041553 15 66 0.0 0.0 0.00 0.00 0.00 44 1013.9
20260502040054 15 20 0.0 0.0 0.00 0.00 0.00 41 1013.9
20260502034552 16 20 0.0 0.0 0.00 0.00 0.00 39 1013.8
20260502033051 17 20 0.0 0.0 0.00 0.00 0.00 36 1013.6
20260502031551 17 20 0.0 0.0 0.00 0.00 0.00 36 1013.4